Time,TemperatureF,DewpointF,PressureIn,WindDirection,WindDirectionDegrees,WindSpeedMPH,WindSpeedGustMPH,Humidity,HourlyPrecipIn,Conditions,Clouds,dailyrainin,SoftwareType,DateUTC
2013-10-15 00:02:00,50.9,44.9,30.26,NE,52,0.0,0.0,80,0.00,OVC,SCT,0.00,WeatherDisplay:10.37,2013-10-15 04:02:00,
2013-10-15 00:17:00,51.1,45.1,30.26,NNE,14,0.0,0.0,80,0.00,OVC,SCT,0.00,WeatherDisplay:10.37,2013-10-15 04:17:00,
2013-10-15 00:32:00,51.4,45.5,30.25,North,0,0.0,0.0,80,0.00,OVC,SCT,0.00,WeatherDisplay:10.37,2013-10-15 04:32:00,
2013-10-15 00:47:00,51.8,45.8,30.25,NW,317,0.0,0.0,80,0.00,OVC,SCT,0.00,WeatherDisplay:10.37,2013-10-15 04:47:00,
2013-10-15 01:02:00,52.0,42.1,30.26,East,80,0.0,0.0,69,0.00,OVC,SCT,0.00,WeatherDisplay:10.37,2013-10-15 05:02:00,
2013-10-15 01:17:00,52.3,41.3,30.25,East,98,0.0,0.0,66,0.00,OVC,SCT,0.00,WeatherDisplay:10.37,2013-10-15 05:17:00,
2013-10-15 01:32:00,52.5,41.5,30.24,North,3,0.0,0.0,66,0.00,OVC,SCT,0.00,WeatherDisplay:10.37,2013-10-15 05:32:00,
2013-10-15 01:47:00,52.5,41.5,30.25,North,349,0.0,0.0,66,0.00,OVC,SCT,0.00,WeatherDisplay:10.37,2013-10-15 05:47:00,
2013-10-15 02:02:00,52.3,44.3,30.25,North,358,0.0,0.0,74,0.00,OVC,SCT,0.00,WeatherDisplay:10.37,2013-10-15 06:02:00,
2013-10-15 02:17:00,52.2,45.2,30.25,North,358,0.0,0.0,77,0.00,OVC,SCT,0.00,WeatherDisplay:10.37,2013-10-15 06:17:00,
2013-10-15 02:32:00,51.4,44.4,30.25,North,358,0.0,0.0,77,0.00,OVC,SCT,0.00,WeatherDisplay:10.37,2013-10-15 06:32:00,
2013-10-15 02:47:00,51.3,44.3,30.25,North,358,0.0,0.0,77,0.00,OVC,SCT,0.00,WeatherDisplay:10.37,2013-10-15 06:47:00,
2013-10-15 03:03:00,51.3,43.3,30.25,North,4,0.0,0.0,74,0.00,OVC,SCT,0.00,WeatherDisplay:10.37,2013-10-15 07:03:00,
2013-10-15 03:18:00,51.4,43.4,30.24,NNE,16,0.0,0.0,74,0.00,OVC,SCT,0.00,WeatherDisplay:10.37,2013-10-15 07:18:00,
2013-10-15 03:33:00,51.6,43.6,30.24,NW,319,0.0,0.0,74,0.00,OVC,SCT,0.00,WeatherDisplay:10.37,2013-10-15 07:33:00,
2013-10-15 03:48:00,51.4,43.4,30.24,NW,307,0.0,0.0,74,0.00,OVC,SCT,0.00,WeatherDisplay:10.37,2013-10-15 07:48:00,
2013-10-15 04:03:00,51.3,44.7,30.23,North,359,0.0,0.0,78,0.00,OVC,SCT,0.00,WeatherDisplay:10.37,2013-10-15 08:03:00,
2013-10-15 04:18:00,50.5,44.2,30.23,WSW,254,0.0,0.0,79,0.00,OVC,SCT,0.00,WeatherDisplay:10.37,2013-10-15 08:18:00,
2013-10-15 04:33:00,50.2,43.9,30.24,SW,232,0.0,0.0,79,0.00,OVC,SCT,0.00,WeatherDisplay:10.37,2013-10-15 08:33:00,
2013-10-15 04:48:00,49.8,43.5,30.24,WNW,290,0.0,0.0,79,0.00,OVC,SCT,0.00,WeatherDisplay:10.37,2013-10-15 08:48:00,
2013-10-15 05:03:00,50.0,46.3,30.24,WSW,257,0.0,0.0,87,0.00,OVC,SCT,0.00,WeatherDisplay:10.37,2013-10-15 09:03:00,
2013-10-15 05:18:00,50.0,46.9,30.25,SW,220,0.0,0.0,89,0.00,OVC,SCT,0.00,WeatherDisplay:10.37,2013-10-15 09:18:00,
2013-10-15 05:33:00,49.8,46.7,30.25,NW,314,0.0,0.0,89,0.00,OVC,SCT,0.00,WeatherDisplay:10.37,2013-10-15 09:33:00,
2013-10-15 05:48:00,49.8,46.7,30.25,SSW,202,0.0,0.0,89,0.00,OVC,SCT,0.00,WeatherDisplay:10.37,2013-10-15 09:48:00,
2013-10-15 06:03:00,49.3,44.7,30.25,SW,214,0.0,0.0,84,0.00,BKN,SCT,0.00,WeatherDisplay:10.37,2013-10-15 10:03:00,
2013-10-15 06:18:00,49.1,43.8,30.25,WSW,244,0.0,0.0,82,0.00,BKN,SCT,0.00,WeatherDisplay:10.37,2013-10-15 10:18:00,
2013-10-15 06:33:00,49.1,43.8,30.25,West,268,0.0,0.0,82,0.00,BKN,SCT,0.00,WeatherDisplay:10.37,2013-10-15 10:33:00,
2013-10-15 06:48:00,49.3,44.0,30.25,South,179,0.0,0.0,82,0.00,BKN,SCT,0.00,WeatherDisplay:10.37,2013-10-15 10:48:00,
2013-10-15 07:03:00,49.2,45.5,30.25,South,178,0.0,0.0,87,0.00,OVC,SCT,0.00,WeatherDisplay:10.37,2013-10-15 11:03:00,
2013-10-15 07:18:00,49.3,46.2,30.26,South,177,0.0,0.0,89,0.00,OVC,SCT,0.00,WeatherDisplay:10.37,2013-10-15 11:18:00,
2013-10-15 07:33:00,49.8,46.7,30.26,West,266,0.0,0.0,89,0.00,OVC,SCT,0.00,WeatherDisplay:10.37,2013-10-15 11:33:00,
2013-10-15 07:48:00,50.7,47.6,30.26,West,261,0.0,0.0,89,0.00,OVC,SCT,0.00,WeatherDisplay:10.37,2013-10-15 11:48:00,
2013-10-15 08:03:00,51.6,46.9,30.27,WNW,300,0.0,0.0,84,0.00,OVC,SCT,0.00,WeatherDisplay:10.37,2013-10-15 12:03:00,
2013-10-15 08:18:00,52.7,47.4,30.27,SSW,212,0.0,0.0,82,0.00,OVC,SCT,0.00,WeatherDisplay:10.37,2013-10-15 12:18:00,
2013-10-15 08:33:00,54.0,48.7,30.27,WSW,246,0.0,0.0,82,0.00,OVC,SCT,0.00,WeatherDisplay:10.37,2013-10-15 12:33:00,
2013-10-15 08:48:00,55.1,49.7,30.27,NE,35,0.0,0.0,82,0.00,OVC,SCT,0.00,WeatherDisplay:10.37,2013-10-15 12:48:00,
2013-10-15 09:03:00,56.7,49.9,30.27,NNE,15,0.0,0.0,78,0.00,OVC,SCT,0.00,WeatherDisplay:10.37,2013-10-15 13:03:00,
2013-10-15 09:18:00,58.5,51.3,30.27,NNW,337,0.0,6.0,77,0.00,OVC,SCT,0.00,WeatherDisplay:10.37,2013-10-15 13:18:00,
2013-10-15 09:33:00,59.6,52.4,30.27,WNW,293,0.0,5.0,77,0.00,OVC,SCT,0.00,WeatherDisplay:10.37,2013-10-15 13:33:00,
2013-10-15 09:48:00,60.5,53.3,30.27,North,10,1.0,5.0,77,0.00,OVC,SCT,0.00,WeatherDisplay:10.37,2013-10-15 13:48:00,
2013-10-15 10:03:00,61.3,52.6,30.27,NE,35,2.0,5.0,73,0.00,OVC,SCT,0.00,WeatherDisplay:10.37,2013-10-15 14:03:00,
2013-10-15 10:18:00,61.7,52.6,30.27,North,11,2.0,7.0,72,0.00,OVC,SCT,0.00,WeatherDisplay:10.37,2013-10-15 14:18:00,
2013-10-15 10:33:00,61.8,52.7,30.27,NNE,20,2.0,7.0,72,0.00,OVC,SCT,0.00,WeatherDisplay:10.37,2013-10-15 14:33:00,
2013-10-15 10:48:00,62.2,53.1,30.27,NW,323,2.0,5.0,72,0.00,OVC,SCT,0.00,WeatherDisplay:10.37,2013-10-15 14:48:00,
2013-10-15 11:03:00,61.7,51.4,30.26,North,11,3.0,6.0,69,0.00,OVC,SCT,0.00,WeatherDisplay:10.37,2013-10-15 15:03:00,
2013-10-15 11:17:00,62.0,51.7,30.26,NE,44,3.0,6.0,69,0.00,OVC,SCT,0.00,WeatherDisplay:10.37,2013-10-15 15:17:00,
2013-10-15 11:18:00,58.0,57.4,29.53,SSW,201,0.0,0.0,98,0.00,OVC,SCT,0.04,WeatherDisplay:10.37,2013-10-15 15:18:00,
2013-10-15 11:33:00,62.4,52.1,30.26,NE,43,0.0,5.0,69,0.00,OVC,SCT,0.00,WeatherDisplay:10.37,2013-10-15 15:33:00,
2013-10-15 11:48:00,63.5,53.1,30.25,NNE,23,2.0,6.0,69,0.00,OVC,SCT,0.00,WeatherDisplay:10.37,2013-10-15 15:48:00,
2013-10-15 12:03:00,64.5,52.5,30.25,North,2,0.0,5.0,65,0.00,BKN,SCT,0.00,WeatherDisplay:10.37,2013-10-15 16:03:00,
2013-10-15 12:17:00,64.9,52.4,30.26,NE,41,2.0,5.0,64,0.00,BKN,SCT,0.00,WeatherDisplay:10.37,2013-10-15 16:17:00,
2013-10-15 12:18:00,56.0,55.4,29.53,SW,233,0.0,0.0,98,0.00,OVC,SCT,0.04,WeatherDisplay:10.37,2013-10-15 16:18:00,
2013-10-15 12:33:00,65.7,53.2,30.25,NE,49,0.0,5.0,64,0.00,BKN,SCT,0.00,WeatherDisplay:10.37,2013-10-15 16:33:00,
2013-10-15 12:47:00,65.8,53.3,30.25,NE,50,0.0,0.0,64,0.00,BKN,SCT,0.00,WeatherDisplay:10.37,2013-10-15 16:47:00,
2013-10-15 12:48:00,56.0,55.4,29.53,WSW,246,0.0,0.0,98,0.00,OVC,SCT,0.04,WeatherDisplay:10.37,2013-10-15 16:48:00,
2013-10-15 13:03:00,65.3,51.1,30.24,NW,318,2.0,4.0,60,0.00,OVC,SCT,0.00,WeatherDisplay:10.37,2013-10-15 17:03:00,
2013-10-15 13:18:00,65.3,51.0,30.24,NNW,342,1.0,6.0,60,0.00,OVC,SCT,0.00,WeatherDisplay:10.37,2013-10-15 17:18:00,
2013-10-15 13:33:00,55.0,54.4,29.53,WNW,291,0.0,0.0,98,0.00,OVC,SCT,0.04,WeatherDisplay:10.37,2013-10-15 17:33:00,
2013-10-15 13:48:00,55.0,54.4,29.53,NW,314,0.0,0.0,98,0.00,OVC,SCT,0.04,WeatherDisplay:10.37,2013-10-15 17:48:00,
2013-10-15 14:03:00,55.0,54.4,29.50,WNW,285,0.0,0.0,98,0.00,OVC,SCT,0.04,WeatherDisplay:10.37,2013-10-15 18:03:00,
2013-10-15 14:18:00,56.0,55.4,29.50,WSW,241,0.0,0.0,98,0.00,OVC,SCT,0.04,WeatherDisplay:10.37,2013-10-15 18:18:00,
2013-10-15 14:33:00,56.0,55.4,29.50,NW,314,0.0,0.0,98,0.00,OVC,SCT,0.04,WeatherDisplay:10.37,2013-10-15 18:33:00,
2013-10-15 14:48:00,56.0,55.4,29.50,NNW,336,0.0,0.0,98,0.00,OVC,SCT,0.04,WeatherDisplay:10.37,2013-10-15 18:48:00,
2013-10-15 15:03:00,56.0,55.4,29.50,NW,316,0.0,0.0,98,0.00,OVC,SCT,0.04,WeatherDisplay:10.37,2013-10-15 19:03:00,
2013-10-15 15:18:00,57.0,56.4,29.50,North,10,0.0,0.0,98,0.00,OVC,SCT,0.04,WeatherDisplay:10.37,2013-10-15 19:18:00,
2013-10-15 15:33:00,57.0,56.4,29.50,NE,34,0.0,0.0,98,0.00,OVC,SCT,0.04,WeatherDisplay:10.37,2013-10-15 19:33:00,
2013-10-15 15:48:00,58.0,57.4,29.50,ENE,66,0.0,0.0,98,0.00,OVC,SCT,0.04,WeatherDisplay:10.37,2013-10-15 19:48:00,
2013-10-15 16:03:00,59.0,58.4,29.47,East,86,0.0,0.0,98,0.01,RA,SCT,0.06,WeatherDisplay:10.37,2013-10-15 20:03:00,
2013-10-15 16:18:00,59.0,58.4,29.47,NNE,27,0.0,0.0,98,0.01,RA,SCT,0.07,WeatherDisplay:10.37,2013-10-15 20:18:00,
2013-10-15 16:33:00,59.0,58.4,29.47,SW,226,0.0,0.0,98,0.00,OVC,SCT,0.07,WeatherDisplay:10.37,2013-10-15 20:33:00,
2013-10-15 16:48:00,59.0,58.4,29.47,West,268,0.0,0.0,98,0.00,OVC,SCT,0.07,WeatherDisplay:10.37,2013-10-15 20:48:00,
2013-10-15 17:03:00,60.0,59.4,29.44,North,1,0.0,0.0,98,0.00,OVC,SCT,0.07,WeatherDisplay:10.37,2013-10-15 21:03:00,
2013-10-15 17:18:00,60.0,59.4,29.44,SSE,147,0.0,0.0,98,0.00,OVC,SCT,0.07,WeatherDisplay:10.37,2013-10-15 21:18:00,
2013-10-15 17:33:00,60.0,59.4,29.44,East,97,2.0,2.0,98,0.00,OVC,SCT,0.07,WeatherDisplay:10.37,2013-10-15 21:33:00,
2013-10-15 17:48:00,60.0,59.4,29.44,South,178,1.0,1.0,98,0.00,OVC,SCT,0.07,WeatherDisplay:10.37,2013-10-15 21:48:00,
2013-10-15 18:03:00,60.0,59.4,29.44,NNE,27,0.0,1.0,98,0.00,OVC,SCT,0.07,WeatherDisplay:10.37,2013-10-15 22:03:00,
2013-10-15 18:18:00,60.0,59.4,29.41,NE,49,0.0,0.0,98,0.01,RA,SCT,0.08,WeatherDisplay:10.37,2013-10-15 22:18:00,
2013-10-15 18:33:00,60.0,59.4,29.41,West,269,0.0,0.0,98,0.00,OVC,SCT,0.08,WeatherDisplay:10.37,2013-10-15 22:33:00,
2013-10-15 18:48:00,60.0,59.4,29.41,ENE,66,1.0,0.0,98,0.00,OVC,SCT,0.08,WeatherDisplay:10.37,2013-10-15 22:48:00,
2013-10-15 19:03:00,60.0,59.4,29.38,SE,140,0.0,0.0,98,0.00,RA,SCT,0.00,WeatherDisplay:10.37,2013-10-15 23:03:00,
2013-10-15 19:18:00,60.0,59.4,29.38,SSE,159,0.0,0.0,98,0.00,OVC,SCT,0.00,WeatherDisplay:10.37,2013-10-15 23:18:00,
2013-10-15 19:33:00,60.0,59.4,29.38,NE,51,0.0,0.0,98,0.00,OVC,SCT,0.00,WeatherDisplay:10.37,2013-10-15 23:33:00,
2013-10-15 19:48:00,60.0,59.4,29.38,NNE,21,0.0,0.0,98,0.00,OVC,SCT,0.00,WeatherDisplay:10.37,2013-10-15 23:48:00,
2013-10-15 20:03:00,61.0,60.4,29.38,ENE,66,0.0,0.0,98,0.00,OVC,SCT,0.00,WeatherDisplay:10.37,2013-10-16 00:03:00,
2013-10-15 20:18:00,61.0,60.4,29.38,NNE,24,0.0,0.0,98,0.00,OVC,SCT,0.00,WeatherDisplay:10.37,2013-10-16 00:18:00,
2013-10-15 20:33:00,61.0,60.4,29.38,SSE,149,0.0,0.0,98,0.00,OVC,SCT,0.00,WeatherDisplay:10.37,2013-10-16 00:33:00,
2013-10-15 20:48:00,61.0,60.4,29.38,ENE,66,0.0,0.0,98,0.00,OVC,SCT,0.00,WeatherDisplay:10.37,2013-10-16 00:48:00,